Location: Fauquembergues
(50.6005°N, 2.0987°E)
Time: 19:52:52
(UTC+00:00)

ATLAS 5 CENTAUR R/B - Pass Details

Date: 14 July 2020
Orbit: 534 x 1124 km, 63.4° (Epoch: 09 August)

Event Time Altitude Azimuth Distance (km) Brightness Sun altitude
Rises 01:32:59 0° 316° (NW) 3,170 5.5 -14.8°
Reaches altitude 10° 01:35:15 10° 320° (NW) 2,330 4.9 -14.6°
Maximum altitude 01:40:36 59° 40° (NE) 1,006 2.9 -14.3°
Drops below altitude 10° 01:46:53 10° 120° (ESE) 2,725 4.8 -13.8°
Sets 01:49:43 0° 124° (SE) 3,752 5.5 -13.6°
